Torna al catalogo

STARLINK-34355

AttivoComunicazioniVLEO
NORAD 64306·PAYLOAD·🇺🇸 United States

Lanciato Jun 8, 2025 da Vandenberg Space Force Base

Loading…

Prossimi Passaggi (prossime 24 ore)

TLE

AggiornatoSource: CelesTrak SupGP

Epoca: Sep 15, 2026, 03:54 UTC

1 64306C 25123R   26258.16298611 -.00026614  00000+0 -92695-3 0  2581
2 64306  70.0002  75.2441 0003257 265.2684 215.6780 15.29553019    13

Traccia STARLINK-34355 in tempo reale con AllMySat

Download on the App Store